TimeEST,TemperatureF,Dew PointF,Humidity,Sea Level PressureIn,VisibilityMPH,Wind Direction,Wind SpeedMPH,Gust SpeedMPH,PrecipitationIn,Events,Conditions,WindDirDegrees,DateUTC
12:15 AM,28.4,26.6,93,30.36,10.0,Calm,Calm,-,N/A,,Clear,0,2012-11-17 05:15:00
12:35 AM,28.4,26.6,93,30.37,10.0,Calm,Calm,-,N/A,,Clear,0,2012-11-17 05:35:00
12:55 AM,28.4,26.6,93,30.37,10.0,Calm,Calm,-,N/A,,Clear,0,2012-11-17 05:55:00
1:15 AM,28.4,26.6,93,30.37,10.0,Calm,Calm,-,N/A,,Clear,0,2012-11-17 06:15:00
1:35 AM,28.4,26.6,93,30.37,10.0,Calm,Calm,-,N/A,,Clear,0,2012-11-17 06:35:00
1:55 AM,28.4,26.6,93,30.37,10.0,Calm,Calm,-,N/A,,Clear,0,2012-11-17 06:55:00
2:15 AM,28.4,26.6,93,30.38,10.0,Calm,Calm,-,N/A,,Clear,0,2012-11-17 07:15:00
2:35 AM,26.6,26.6,100,30.38,10.0,Calm,Calm,-,N/A,,Clear,0,2012-11-17 07:35:00
2:55 AM,26.6,26.6,100,30.38,10.0,Calm,Calm,-,N/A,,Clear,0,2012-11-17 07:55:00
3:15 AM,26.6,23.0,86,30.39,10.0,Calm,Calm,-,N/A,,Clear,0,2012-11-17 08:15:00
3:35 AM,24.8,23.0,93,30.39,10.0,Calm,Calm,-,N/A,,Clear,0,2012-11-17 08:35:00
3:55 AM,26.6,24.8,93,30.38,10.0,Calm,Calm,-,N/A,,Clear,0,2012-11-17 08:55:00
4:15 AM,26.6,23.0,86,30.39,10.0,Calm,Calm,-,N/A,,Clear,0,2012-11-17 09:15:00
4:35 AM,24.8,23.0,93,30.39,10.0,Calm,Calm,-,N/A,,Clear,0,2012-11-17 09:35:00
4:55 AM,24.8,23.0,93,30.40,10.0,Calm,Calm,-,N/A,,Clear,0,2012-11-17 09:55:00
5:15 AM,24.8,23.0,93,30.40,10.0,Calm,Calm,-,N/A,,Clear,0,2012-11-17 10:15:00
5:35 AM,24.8,23.0,93,30.41,10.0,Calm,Calm,-,N/A,,Clear,0,2012-11-17 10:35:00
5:55 AM,24.8,23.0,93,30.42,10.0,Calm,Calm,-,N/A,,Clear,0,2012-11-17 10:55:00
6:15 AM,23.0,21.2,93,30.42,10.0,Calm,Calm,-,N/A,,Clear,0,2012-11-17 11:15:00
6:35 AM,23.0,21.2,93,30.42,10.0,Calm,Calm,-,N/A,,Clear,0,2012-11-17 11:35:00
6:55 AM,24.8,23.0,93,30.43,10.0,Calm,Calm,-,N/A,,Clear,0,2012-11-17 11:55:00
7:15 AM,23.0,21.2,93,30.43,10.0,Calm,Calm,-,N/A,,Clear,0,2012-11-17 12:15:00
7:35 AM,23.0,21.2,93,30.44,10.0,Calm,Calm,-,N/A,,Clear,0,2012-11-17 12:35:00
7:55 AM,23.0,21.2,93,30.44,10.0,Calm,Calm,-,N/A,,Clear,0,2012-11-17 12:55:00
8:15 AM,26.6,24.8,93,30.44,10.0,Calm,Calm,-,N/A,,Clear,0,2012-11-17 13:15:00
8:35 AM,30.2,28.4,93,30.45,7.0,Calm,Calm,-,N/A,,Clear,0,2012-11-17 13:35:00
8:55 AM,32.0,30.2,93,30.45,7.0,Calm,Calm,-,N/A,,Clear,0,2012-11-17 13:55:00
9:15 AM,33.8,32.0,93,30.45,10.0,Calm,Calm,-,N/A,,Clear,0,2012-11-17 14:15:00
9:35 AM,35.6,32.0,87,30.45,10.0,Calm,Calm,-,N/A,,Clear,0,2012-11-17 14:35:00
9:55 AM,37.4,32.0,81,30.45,10.0,Calm,Calm,-,N/A,,Clear,0,2012-11-17 14:55:00
10:15 AM,41.0,32.0,70,30.45,10.0,Calm,Calm,-,N/A,,Clear,0,2012-11-17 15:15:00
10:35 AM,42.8,32.0,66,30.44,10.0,Calm,Calm,-,N/A,,Clear,0,2012-11-17 15:35:00
10:55 AM,46.4,32.0,57,30.44,10.0,Calm,Calm,-,N/A,,Clear,0,2012-11-17 15:55:00
11:15 AM,48.2,32.0,54,30.42,10.0,Calm,Calm,-,N/A,,Clear,0,2012-11-17 16:15:00
11:35 AM,50.0,30.2,47,30.42,10.0,Calm,Calm,-,N/A,,Clear,0,2012-11-17 16:35:00
12:55 PM,57.2,15.8,20,30.37,10.0,Calm,Calm,-,N/A,,Clear,0,2012-11-17 17:55:00
1:15 PM,59.0,17.6,20,30.35,10.0,Calm,Calm,-,N/A,,Clear,0,2012-11-17 18:15:00
1:35 PM,59.0,14.0,17,30.34,10.0,Calm,Calm,-,N/A,,Clear,0,2012-11-17 18:35:00
1:55 PM,60.8,12.2,15,30.34,10.0,WSW,3.5,-,N/A,,Clear,240,2012-11-17 18:55:00
2:15 PM,60.8,14.0,16,30.33,10.0,WSW,4.6,-,N/A,,Clear,240,2012-11-17 19:15:00
2:35 PM,60.8,14.0,16,30.32,10.0,WSW,4.6,-,N/A,,Clear,240,2012-11-17 19:35:00
2:55 PM,60.8,14.0,16,30.32,10.0,Calm,Calm,-,N/A,,Clear,0,2012-11-17 19:55:00
3:15 PM,60.8,14.0,16,30.32,10.0,Calm,Calm,-,N/A,,Clear,0,2012-11-17 20:15:00
3:35 PM,60.8,15.8,17,30.32,10.0,Calm,Calm,-,N/A,,Clear,0,2012-11-17 20:35:00
3:55 PM,60.8,17.6,19,30.32,10.0,WSW,3.5,-,N/A,,Clear,240,2012-11-17 20:55:00
4:15 PM,60.8,17.6,19,30.32,10.0,ESE,3.5,-,N/A,,Clear,120,2012-11-17 21:15:00
4:35 PM,59.0,19.4,22,30.33,10.0,Calm,Calm,-,N/A,,Clear,0,2012-11-17 21:35:00
4:55 PM,53.6,24.8,33,30.34,10.0,Calm,Calm,-,N/A,,Clear,0,2012-11-17 21:55:00
5:15 PM,48.2,30.2,50,30.34,10.0,Calm,Calm,-,N/A,,Clear,0,2012-11-17 22:15:00
5:35 PM,42.8,30.2,61,30.35,10.0,Calm,Calm,-,N/A,,Clear,0,2012-11-17 22:35:00
5:55 PM,39.2,32.0,75,30.36,10.0,Calm,Calm,-,N/A,,Clear,0,2012-11-17 22:55:00
6:15 PM,37.4,30.2,75,30.37,10.0,Calm,Calm,-,N/A,,Clear,0,2012-11-17 23:15:00
6:35 PM,37.4,30.2,75,30.37,10.0,Calm,Calm,-,N/A,,Clear,0,2012-11-17 23:35:00
6:55 PM,35.6,30.2,81,30.38,10.0,Calm,Calm,-,N/A,,Clear,0,2012-11-17 23:55:00
7:15 PM,32.0,28.4,87,30.39,10.0,Calm,Calm,-,N/A,,Clear,0,2012-11-18 00:15:00
7:35 PM,32.0,28.4,87,30.39,10.0,Calm,Calm,-,N/A,,Clear,0,2012-11-18 00:35:00
7:55 PM,32.0,28.4,87,30.39,10.0,Calm,Calm,-,N/A,,Clear,0,2012-11-18 00:55:00
8:15 PM,32.0,28.4,87,30.40,10.0,Calm,Calm,-,N/A,,Clear,0,2012-11-18 01:15:00
8:35 PM,32.0,26.6,80,30.40,10.0,Calm,Calm,-,N/A,,Clear,0,2012-11-18 01:35:00
8:55 PM,32.0,28.4,87,30.41,10.0,Calm,Calm,-,N/A,,Clear,0,2012-11-18 01:55:00
9:15 PM,30.2,26.6,86,30.41,10.0,Calm,Calm,-,N/A,,Clear,0,2012-11-18 02:15:00
9:35 PM,30.2,26.6,86,30.41,10.0,Calm,Calm,-,N/A,,Clear,0,2012-11-18 02:35:00
9:55 PM,30.2,26.6,86,30.41,10.0,Calm,Calm,-,N/A,,Clear,0,2012-11-18 02:55:00
10:15 PM,30.2,26.6,86,30.41,10.0,Calm,Calm,-,N/A,,Clear,0,2012-11-18 03:15:00
10:35 PM,28.4,26.6,93,30.42,10.0,Calm,Calm,-,N/A,,Clear,0,2012-11-18 03:35:00
10:55 PM,28.4,24.8,86,30.41,10.0,Calm,Calm,-,N/A,,Clear,0,2012-11-18 03:55:00
11:15 PM,28.4,26.6,93,30.41,10.0,Calm,Calm,-,N/A,,Clear,0,2012-11-18 04:15:00
11:35 PM,28.4,24.8,86,30.41,10.0,Calm,Calm,-,N/A,,Clear,0,2012-11-18 04:35:00
11:55 PM,28.4,24.8,86,30.41,10.0,Calm,Calm,-,N/A,,Clear,0,2012-11-18 04:55:00